1521892800.64,62934,11.38,72150.3,2.29,-31.05,-30.67,0,*7B
1521892801.89,62935,11.38,72150.3,2.29,-31.01,-30.51,0,*7B
1521892803.18,62936,11.38,72148.3,2.29,-31.23,-30.73,0,*78
1521892804.43,62937,11.38,72150.3,2.29,-31.05,-30.61,0,*7E
1521892805.69,62938,11.38,72150.5,2.29,-31.33,-30.73,0,*77
1521892806.94,62939,11.38,72148.3,2.29,-31.17,-30.61,0,*73
1521892808.21,62940,11.38,72150.5,2.27,-31.11,-30.73,0,*76
1521892809.5,62941,11.38,72150.8,2.29,-31.23,-30.89,0,*7D
1521892810.76,62942,11.38,72150.5,2.27,-31.23,-30.73,0,*75
1521892812.01,62943,11.38,72150.3,2.29,-31.39,-31.05,0,*71
1521892813.26,62944,11.38,72152.3,2.29,-31.39,-31.17,0,*75
1521892814.52,62945,11.38,72150.0,2.29,-31.23,-30.67,0,*79
1521892815.73,62946,11.38,72150.0,2.27,-31.45,-31.05,0,*71
1521892816.99,62947,11.38,72148.5,2.27,-31.57,-31.11,0,*76
1521892818.22,62948,11.38,72148.5,2.27,-31.39,-31.05,0,*74
1521892819.46,62949,11.38,72146.3,2.27,-31.61,-31.29,0,*76
1521892820.71,62950,11.38,72148.3,2.27,-31.73,-31.39,0,*7C
1521892821.97,62951,11.38,72146.5,2.27,-31.95,-31.57,0,*7D
1521892823.21,62952,11.38,72150.3,2.27,-32.01,-31.61,0,*75
1521892824.46,62953,11.38,72148.5,2.25,-32.13,-31.85,0,*7F
1521892825.66,62954,11.38,72146.5,2.23,-32.01,-31.67,0,*71
1521892826.92,62955,11.38,72146.5,2.23,-31.95,-31.61,0,*78
1521892828.2,62956,11.38,72144.8,2.25,-31.95,-31.57,0,*78
1521892829.46,62957,11.38,72148.8,2.21,-32.01,-31.61,0,*76
1521892830.7,62958,11.38,72150.8,2.21,-31.79,-31.45,0,*73
1521892831.99,62959,11.38,72144.8,2.21,-31.85,-31.51,0,*74
1521892833.24,62960,11.38,72144.0,2.19,-31.39,-30.89,0,*76
1521892834.47,62961,11.38,72144.0,2.19,-31.57,-31.17,0,*79
1521892835.73,62962,11.38,72146.0,2.19,-31.85,-31.51,0,*77
1521892836.92,62963,11.38,72148.5,2.19,-33.15,-32.57,0,*78
1521892838.18,62964,11.38,72150.8,2.17,-32.51,-32.07,0,*75
1521892839.44,62965,11.38,72148.3,2.17,-31.79,-31.39,0,*73
1521892840.67,62966,11.38,72150.8,2.15,-31.79,-31.39,0,*72
1521892841.95,62967,11.38,72152.0,2.17,-31.39,-30.89,0,*7F
1521892843.24,62968,11.38,72148.8,2.17,-31.57,-31.11,0,*78
1521892844.52,62969,11.38,72150.0,2.17,-31.61,-31.11,0,*7C
1521892845.74,62970,11.38,72150.5,2.15,-31.79,-31.57,0,*7D
1521892846.99,62971,11.38,72150.8,2.15,-31.91,-31.57,0,*7A
1521892848.27,62972,11.38,72148.8,2.17,-31.91,-31.57,0,*7B
1521892849.52,62973,11.38,72150.5,2.13,-31.01,-30.61,0,*73
1521892850.78,62974,11.38,72148.3,2.13,-30.77,-30.27,0,*76
1521892852.03,62975,11.38,72148.0,2.13,-30.89,-30.45,0,*72
1521892853.27,62976,11.38,72150.5,2.13,-31.45,-31.29,0,*7B
1521892854.52,62977,11.38,72146.8,2.11,-32.19,-31.85,0,*74
1521892855.8,62978,11.38,72146.5,2.13,-31.51,-30.95,0,*76
1521892857.06,62979,11.38,72150.3,2.13,-31.33,-30.89,0,*7E
1521892858.34,62980,11.38,72150.0,2.13,-31.11,-30.55,0,*79
1521892859.59,62981,11.38,72148.3,2.13,-30.89,-30.27,0,*7D
1521892860.88,62982,11.38,72150.8,2.13,-31.11,-30.61,0,*7C
1521892862.15,62983,11.38,72150.3,2.11,-31.11,-30.61,0,*7F
1521892863.41,62984,11.38,72150.5,2.13,-31.17,-30.61,0,*7C
1521892864.66,62985,11.38,72148.0,2.15,-30.89,-30.39,0,*70
1521892865.93,62986,11.38,72150.0,2.13,-30.61,-30.05,0,*7C
1521892867.18,62987,11.38,72150.0,2.15,-30.89,-30.51,0,*7C
1521892868.44,62988,11.38,72150.5,2.15,-30.95,-30.55,0,*7A
1521892869.68,62989,11.38,72148.5,2.15,-31.23,-30.83,0,*7C
1521892870.93,62990,11.38,72150.8,2.15,-30.95,-30.39,0,*79
1521892872.13,62991,11.38,72150.3,2.15,-30.83,-30.33,0,*75
1521892873.39,62992,11.38,72148.0,2.15,-31.11,-30.55,0,*7C
1521892874.64,62993,11.38,72150.3,2.15,-30.95,-30.51,0,*74
1521892875.9,62994,11.38,72146.3,2.15,-30.73,-30.17,0,*79
1521892877.13,62995,11.38,72148.8,2.15,-30.67,-30.17,0,*7D
1521892878.39,62996,11.38,72144.3,2.17,-30.73,-30.23,0,*7E
1521892879.61,62997,11.38,72148.3,2.15,-31.05,-30.55,0,*7C
1521892880.86,62998,11.38,72148.8,2.15,-30.95,-30.55,0,*7B
1521892882.11,62999,11.38,72148.8,2.15,-30.95,-30.55,0,*7A
1521892883.4,63000,11.38,72150.5,2.17,-31.73,-31.23,0,*79
1521892884.63,63001,11.38,72148.5,2.15,-31.45,-30.95,0,*73
1521892885.89,63002,11.38,72150.3,2.15,-31.23,-30.73,0,*78
1521892887.14,63003,11.38,72148.8,2.15,-30.89,-30.39,0,*76
1521892888.39,63004,11.38,72148.5,2.17,-31.05,-30.39,0,*76
1521892889.65,63005,11.38,72148.8,2.15,-32.07,-31.61,0,*78
1521892890.88,63006,11.38,72150.0,2.13,-32.01,-31.67,0,*7D
1521892892.08,63007,11.38,72152.0,2.11,-32.13,-31.67,0,*7D
1521892893.34,63008,11.38,72150.3,2.13,-31.85,-31.45,0,*7C
1521892894.58,63009,11.38,72148.3,2.11,-31.61,-31.29,0,*7F
1521892895.82,63010,11.38,72150.3,2.11,-31.85,-31.45,0,*77
1521892897.07,63011,11.38,72148.5,2.11,-31.95,-31.51,0,*72
1521892898.29,63012,11.38,72150.3,2.11,-31.79,-31.45,0,*76
1521892899.52,63013,11.38,72148.3,2.11,-32.01,-31.61,0,*7D
1521892900.75,63014,11.38,72148.8,2.07,-32.07,-31.67,0,*7D
1521892901.98,63015,11.38,72150.3,2.05,-32.13,-31.79,0,*74
1521892903.18,63016,11.38,72152.0,2.07,-32.01,-31.67,0,*79
1521892904.43,63017,11.38,72150.5,2.07,-31.73,-31.23,0,*7E
1521892905.69,63018,11.38,72152.3,2.05,-31.91,-31.45,0,*7F
1521892906.97,63019,11.38,72152.0,2.05,-31.91,-31.57,0,*7D
1521892908.2,63020,11.38,72148.0,2.05,-31.45,-31.01,0,*7D
1521892909.46,63021,11.38,72150.5,2.05,-31.91,-31.45,0,*75
1521892910.72,63022,11.38,72148.0,2.05,-31.79,-31.39,0,*7B
1521892911.95,63023,11.38,72148.8,2.03,-31.79,-31.39,0,*7C
1521892913.18,63024,11.38,72150.8,2.03,-32.13,-31.73,0,*7A
1521892914.43,63025,11.38,72150.3,2.03,-31.95,-31.57,0,*70
1521892915.69,63026,11.38,72148.5,2.05,-31.61,-31.05,0,*79
1521892916.92,63027,11.38,72152.5,2.03,-31.73,-31.45,0,*79
1521892918.18,63028,11.38,72148.0,2.01,-32.01,-31.61,0,*74
1521892919.44,63029,11.38,72146.8,2.01,-31.79,-31.51,0,*7A
1521892920.67,63030,11.38,72148.8,2.01,-32.01,-31.67,0,*7B
1521892921.92,63031,11.38,72150.3,2.01,-31.85,-31.33,0,*74
1521892923.18,63032,11.38,72150.5,2.01,-31.33,-30.89,0,*7A
1521892924.43,63033,11.38,72150.3,2.01,-31.05,-30.55,0,*7F
1521892925.67,63034,11.38,72148.0,2.03,-31.11,-30.67,0,*7E
1521892926.93,63035,11.38,72148.3,2.01,-31.45,-31.11,0,*7C
1521892928.2,63036,11.38,72148.0,2.03,-31.23,-30.73,0,*78
1521892929.4,63037,11.38,72148.8,1.99,-31.79,-31.17,0,*75
1521892930.68,63038,11.38,72148.0,2.01,-31.51,-30.95,0,*79
1521892931.93,63039,11.38,72148.8,2.01,-31.05,-30.61,0,*72
1521892933.19,63040,11.38,72148.5,2.01,-31.85,-31.33,0,*72
1521892934.42,63041,11.38,72148.0,2.01,-32.57,-32.01,0,*7D
1521892935.62,63042,11.38,72146.8,1.99,-31.45,-31.05,0,*7B
1521892936.86,63043,11.38,72152.0,1.99,-31.45,-30.77,0,*7E
1521892938.1,63044,11.38,72150.0,1.99,-31.33,-30.89,0,*79
1521892939.33,63045,11.38,72150.5,1.99,-31.33,-30.77,0,*79
1521892940.59,63046,11.38,72148.5,1.97,-31.39,-30.83,0,*75
1521892941.82,63047,11.38,72150.0,1.99,-31.51,-31.17,0,*78
1521892943.07,63048,11.38,72148.3,1.97,-31.57,-31.17,0,*7F
1521892944.34,63049,11.38,72150.8,1.97,-31.51,-30.95,0,*73
1521892945.6,63050,11.38,72148.3,1.99,-31.51,-30.89,0,*78
1521892946.86,63051,11.38,72150.8,1.97,-31.33,-30.77,0,*72
1521892948.09,63052,11.38,72148.8,1.99,-31.17,-30.77,0,*79
1521892949.34,63053,11.38,72144.0,1.97,-31.67,-31.11,0,*70
1521892950.58,63054,11.38,72148.8,1.99,-31.85,-31.17,0,*73
1521892951.85,63055,11.38,72150.0,1.97,-31.91,-31.39,0,*75
1521892953.13,63056,11.38,72150.3,1.97,-31.57,-30.95,0,*7B
1521892954.37,63057,11.38,72148.5,1.97,-30.61,-30.11,0,*72
1521892955.65,63058,11.38,72150.5,1.97,-30.95,-30.61,0,*71
1521892956.94,63059,11.38,72148.0,1.97,-31.23,-30.77,0,*7B
1521892958.18,63060,11.38,72148.0,1.99,-31.17,-30.73,0,*7C
1521892959.41,63061,11.38,72150.8,1.99,-31.33,-30.77,0,*7F
1521892960.69,63062,11.38,72150.5,1.97,-31.85,-31.23,0,*7F
1521892961.93,63063,11.38,72150.8,1.97,-31.33,-30.83,0,*78
1521892963.15,63064,11.38,72148.5,1.95,-31.39,-31.05,0,*78
1521892964.36,63065,11.38,72148.5,1.95,-31.29,-30.83,0,*77
1521892965.62,63066,11.38,72150.0,1.95,-30.17,-29.51,0,*7F
1521892966.87,63067,11.38,72150.3,1.99,-30.61,-30.05,0,*7A
1521892968.14,63068,11.38,72148.3,1.97,-31.91,-31.39,0,*7B
1521892969.36,63069,11.38,72150.0,1.97,-31.67,-31.01,0,*78
1521892970.59,63070,11.38,72146.3,1.97,-32.01,-31.67,0,*73
1521892971.85,63071,11.38,72148.5,1.97,-31.85,-31.17,0,*7A
1521892973.08,63072,11.38,72150.5,1.95,-31.79,-31.23,0,*7F
1521892974.31,63073,11.38,72152.3,1.95,-32.63,-32.23,0,*75
1521892975.54,63074,11.38,72150.8,1.95,-31.91,-31.29,0,*75
1521892976.77,63075,11.38,72148.5,1.93,-31.29,-30.83,0,*70
1521892978.02,63076,11.38,72148.8,1.93,-31.05,-30.55,0,*76
1521892979.3,63077,11.38,72152.0,1.93,-31.95,-31.57,0,*7D
1521892980.56,63078,11.38,72152.8,1.93,-31.61,-31.17,0,*7D
1521892981.81,63079,11.38,72150.8,1.95,-31.95,-31.57,0,*75
1521892983.09,63080,11.38,72152.5,1.93,-31.91,-31.61,0,*74
1521892984.32,63081,11.38,72152.5,1.93,-31.79,-31.29,0,*7F
1521892985.56,63082,11.38,72150.0,1.91,-31.85,-31.33,0,*76
1521892986.75,63083,11.38,72150.0,1.91,-32.35,-32.01,0,*7D
1521892987.95,63084,11.38,72150.5,1.91,-32.51,-32.13,0,*7B
1521892989.18,63085,11.38,72148.8,1.91,-32.91,-32.45,0,*75
1521892990.43,63086,11.38,72154.3,1.89,-33.09,-32.57,0,*7C
1521892991.65,63087,11.38,72152.3,1.83,-33.27,-32.91,0,*71
1521892992.88,63088,11.38,72148.3,1.83,-33.27,-32.91,0,*7E
1521892994.14,63089,11.38,72150.5,1.83,-33.27,-32.75,0,*75
1521892995.36,63090,11.38,72150.3,1.81,-33.55,-33.21,0,*7A
1521892996.6,63091,11.38,72150.3,1.79,-32.75,-32.35,0,*7B
1521892997.82,63092,11.38,72152.3,1.79,-32.19,-31.79,0,*79
1521892999.06,63093,11.38,72154.0,1.81,-31.33,-30.83,0,*70
1521893000.31,63094,11.38,72148.8,1.81,-31.73,-31.33,0,*79
1521893001.54,63095,11.44,72152.8,1.81,-31.79,-31.45,0,*73
1521893002.78,63096,11.38,72150.8,1.79,-31.79,-31.23,0,*77
1521893003.99,63097,11.38,72148.3,1.79,-31.79,-31.29,0,*7C
1521893005.25,63098,11.38,72150.5,1.79,-31.61,-31.23,0,*70
1521893006.51,63099,11.38,72150.5,1.79,-31.85,-31.39,0,*70
1521893007.77,63100,11.38,72154.0,1.79,-31.51,-31.11,0,*72
1521893008.96,63101,11.38,72150.8,1.79,-32.35,-32.01,0,*70
1521893010.22,63102,11.38,72150.3,1.79,-31.95,-31.51,0,*7C
1521893011.45,63103,11.38,72152.0,1.79,-32.19,-31.67,0,*7F
1521893012.69,63104,11.44,72152.0,1.79,-32.01,-31.51,0,*74
1521893013.92,63105,11.38,72148.3,1.75,-31.91,-31.33,0,*77
1521893015.17,63106,11.38,72148.0,1.77,-32.45,-32.13,0,*7D
1521893016.4,63107,11.44,72152.5,1.75,-32.39,-31.91,0,*7C
1521893017.63,63108,11.38,72152.3,1.75,-32.51,-31.91,0,*7D
1521893018.86,63109,11.38,72148.0,1.75,-32.23,-31.85,0,*7C
1521893020.08,63110,11.38,72154.3,1.75,-32.23,-31.91,0,*71
1521893021.34,63111,11.38,72150.3,1.73,-32.39,-31.91,0,*7D
1521893022.56,63112,11.38,72148.8,1.71,-32.57,-32.13,0,*7D
1521893023.79,63113,11.38,72152.8,1.71,-32.57,-32.23,0,*7F
1521893025.04,63114,11.38,72154.0,1.71,-32.23,-31.61,0,*7E
1521893026.29,63115,11.38,72150.5,1.73,-32.39,-32.07,0,*75
1521893027.52,63116,11.38,72152.3,1.71,-31.79,-31.33,0,*77
1521893028.74,63117,11.44,72152.5,1.71,-32.13,-31.79,0,*77
1521893029.97,63118,11.44,72154.3,1.71,-32.13,-31.79,0,*78
1521893031.23,63119,11.38,72154.8,1.71,-32.39,-32.07,0,*7B
1521893032.45,63120,11.38,72148.5,1.69,-31.57,-31.05,0,*72
1521893033.71,63121,11.38,72152.8,1.69,-31.61,-31.23,0,*72
1521893034.94,63122,11.44,72152.5,1.69,-31.91,-31.33,0,*7F
1521893036.22,63123,11.44,72154.0,1.71,-31.61,-31.23,0,*79
1521893037.47,63124,11.38,72152.3,1.71,-31.51,-31.05,0,*79
1521893038.73,63125,11.38,72148.5,1.71,-31.61,-31.17,0,*78
1521893039.99,63126,11.38,72154.5,1.71,-31.57,-31.17,0,*7E
1521893041.25,63127,11.38,72152.8,1.71,-31.79,-31.23,0,*74
1521893042.5,63128,11.38,72154.8,1.71,-31.61,-31.17,0,*75
1521893043.76,63129,11.38,72152.5,1.71,-31.61,-31.01,0,*73
1521893045.04,63130,11.38,72150.8,1.71,-31.73,-31.39,0,*73
1521893046.32,63131,11.44,72152.8,1.71,-31.95,-31.57,0,*72
1521893047.57,63132,11.44,72152.3,1.69,-31.91,-31.51,0,*7A
1521893048.83,63133,11.38,72150.8,1.69,-31.61,-31.23,0,*71
1521893050.06,63134,11.38,72148.8,1.69,-31.57,-31.17,0,*74
1521893051.28,63135,11.44,72152.3,1.69,-31.57,-31.05,0,*76
1521893052.52,63136,11.38,72148.8,1.69,-31.61,-31.17,0,*73
1521893053.8,63137,11.38,72152.0,1.71,-31.95,-31.51,0,*72
1521893055.05,63138,11.44,72154.8,1.71,-32.23,-31.91,0,*7F
1521893056.27,63139,11.44,72154.3,1.69,-32.39,-32.07,0,*70
1521893057.5,63140,11.44,72154.0,1.69,-32.57,-32.29,0,*7A
1521893058.77,63141,11.38,72154.3,1.67,-32.45,-32.19,0,*75
1521893060.05,63142,11.38,72150.0,1.67,-33.09,-32.79,0,*79
1521893061.3,63143,11.38,72152.8,1.67,-32.63,-32.35,0,*7D
1521893062.55,63144,11.38,72152.0,1.65,-31.95,-31.57,0,*75
1521893063.75,63145,11.44,72154.8,1.65,-31.45,-31.05,0,*7E
1521893064.97,63146,11.38,72152.5,1.65,-31.39,-31.05,0,*76
1521893066.19,63147,11.38,72150.8,1.65,-31.39,-31.05,0,*77
1521893067.43,63148,11.38,72152.0,1.65,-30.89,-30.51,0,*72
1521893068.72,63149,11.44,72154.5,1.67,-31.61,-31.23,0,*72
1521893069.97,63150,11.44,72152.3,1.67,-31.45,-30.95,0,*70
1521893071.26,63151,11.38,72148.3,1.67,-31.23,-30.77,0,*7D
1521893072.51,63152,11.38,72148.8,1.67,-32.13,-31.61,0,*78
1521893073.75,63153,11.44,72152.8,1.67,-32.01,-31.57,0,*7F
1521893074.98,63154,11.38,72148.3,1.65,-31.85,-31.29,0,*7C
1521893076.22,63155,11.44,72154.0,1.61,-32.01,-31.51,0,*79
1521893077.44,63156,11.38,72148.0,1.65,-31.61,-31.29,0,*74
1521893078.67,63157,11.44,72150.8,1.67,-32.13,-31.45,0,*7B
1521893079.9,63158,11.38,72152.0,1.61,-32.19,-31.67,0,*78
1521893081.16,63159,11.44,72156.3,1.61,-32.07,-31.61,0,*70
1521893082.41,63160,11.44,72154.8,1.61,-32.19,-31.73,0,*76
1521893083.66,63161,11.44,72152.3,1.61,-31.51,-31.11,0,*7C
1521893084.89,63162,11.38,72152.3,1.61,-31.91,-31.33,0,*73
1521893086.12,63163,11.44,72152.5,1.65,-31.95,-31.45,0,*73
1521893087.36,63164,11.44,72154.8,1.61,-32.01,-31.51,0,*7B
1521893088.58,63165,11.38,72148.8,1.61,-32.23,-31.91,0,*76
1521893089.8,63166,11.44,72158.8,1.59,-32.91,-32.57,0,*7E
1521893091.03,63167,11.44,72148.8,1.57,-33.21,-32.79,0,*77
1521893092.26,63168,11.38,72148.5,1.57,-33.83,-33.49,0,*72
1521893093.51,63169,11.38,72152.0,1.55,-33.55,-33.09,0,*7E
1521893094.77,63170,11.44,72152.5,1.53,-33.09,-32.79,0,*7F
1521893096.0,63171,11.38,72152.5,1.53,-32.63,-32.35,0,*7B
1521893097.25,63172,11.44,72152.5,1.53,-32.85,-32.45,0,*77
1521893098.51,63173,11.38,72152.0,1.51,-32.85,-32.39,0,*7F
1521893099.77,63174,11.44,72154.3,1.51,-32.91,-32.75,0,*75
1521893101.02,63175,11.44,72152.0,1.49,-32.97,-32.63,0,*7C
1521893102.28,63176,11.38,72154.0,1.51,-32.85,-32.39,0,*7A
1521893103.51,63177,11.44,72152.0,1.49,-32.79,-32.57,0,*79
1521893104.74,63178,11.44,72158.8,1.49,-32.75,-32.39,0,*72
1521893105.98,63179,11.44,72154.5,1.47,-32.69,-32.39,0,*70
1521893107.23,63180,11.44,72154.8,1.47,-32.91,-32.63,0,*7E
1521893108.47,63181,11.44,72152.8,1.45,-32.97,-32.69,0,*71
1521893109.72,63182,11.44,72158.0,1.47,-32.79,-32.57,0,*7D
1521893110.95,63183,11.38,72154.3,1.45,-32.45,-32.01,0,*72
1521893112.2,63184,11.38,72154.8,1.45,-32.29,-31.91,0,*75
1521893113.46,63185,11.44,72154.5,1.45,-32.19,-31.73,0,*7B
1521893114.67,63186,11.44,72154.3,1.45,-31.79,-31.29,0,*72
1521893115.91,63187,11.38,72152.8,1.45,-31.45,-30.89,0,*77
1521893117.17,63188,11.44,72152.3,1.47,-31.73,-31.29,0,*74
1521893118.43,63189,11.44,72156.0,1.47,-31.51,-31.05,0,*7B
1521893119.68,63190,11.44,72158.3,1.47,-31.67,-31.23,0,*72
1521893120.96,63191,11.44,72154.5,1.47,-31.23,-30.83,0,*78
1521893122.22,63192,11.44,72154.8,1.47,-31.17,-30.77,0,*77
1521893123.45,63193,11.44,72154.8,1.49,-31.51,-31.05,0,*7E
1521893124.69,63194,11.44,72152.8,1.49,-31.23,-30.83,0,*73
1521893125.95,63195,11.44,72154.5,1.47,-31.17,-30.61,0,*77
1521893127.24,63196,11.38,72154.0,1.47,-31.39,-30.89,0,*7E
1521893128.53,63197,11.38,72152.5,1.51,-31.11,-30.77,0,*73
1521893129.79,63198,11.44,72152.3,1.51,-31.01,-30.61,0,*7A
1521893131.05,63199,11.44,72154.8,1.51,-31.29,-30.95,0,*7A
1521893132.3,63200,11.44,72152.3,1.51,-31.45,-30.95,0,*73
1521893133.56,63201,11.44,72152.8,1.51,-31.17,-30.95,0,*75
1521893134.81,63202,11.44,72156.0,1.51,-31.45,-30.95,0,*71
1521893136.1,63203,11.44,72152.8,1.51,-31.11,-30.61,0,*7A
1521893137.37,63204,11.44,72154.5,1.51,-31.91,-31.45,0,*72
1521893138.63,63205,11.44,72152.3,1.51,-32.01,-31.61,0,*7F
1521893139.88,63206,11.44,72154.0,1.49,-32.07,-31.85,0,*79
1521893141.13,63207,11.38,72152.5,1.49,-32.29,-31.85,0,*74
1521893142.38,63208,11.44,72154.5,1.49,-32.07,-31.73,0,*7E
1521893143.65,63209,11.44,72156.5,1.51,-32.01,-31.51,0,*70
1521893144.87,63210,11.44,72158.8,1.49,-32.13,-31.85,0,*7B
1521893146.15,63211,11.44,72152.5,1.47,-32.07,-31.57,0,*7E
1521893147.43,63212,11.44,72154.3,1.47,-31.91,-31.57,0,*71
1521893148.69,63213,11.44,72156.0,1.47,-31.85,-31.33,0,*77
1521893149.95,63214,11.44,72156.0,1.47,-31.67,-31.23,0,*7D
1521893151.24,63215,11.44,72156.0,1.47,-31.57,-31.23,0,*7F
1521893152.5,63216,11.44,72158.0,1.49,-31.51,-30.89,0,*75
1521893153.72,63217,11.44,72156.0,1.49,-31.01,-30.51,0,*74
1521893154.92,63218,11.44,72154.5,1.49,-31.33,-31.05,0,*7A
1521893156.18,63219,11.44,72154.3,1.51,-31.45,-31.11,0,*76
1521893157.44,63220,11.44,72152.5,1.49,-31.95,-31.51,0,*7C
1521893158.67,63221,11.44,72154.5,1.49,-31.91,-31.33,0,*7D
1521893159.92,63222,11.44,72156.5,1.49,-31.95,-31.57,0,*78
1521893161.18,63223,11.44,72156.5,1.51,-31.61,-31.17,0,*7F
1521893162.4,63224,11.44,72156.5,1.49,-31.33,-30.83,0,*7A
1521893163.65,63225,11.44,72156.3,1.51,-30.83,-30.39,0,*79
1521893164.9,63226,11.38,72152.3,1.51,-31.01,-30.55,0,*7B
1521893166.16,63227,11.44,72156.3,1.51,-31.45,-31.11,0,*7B
1521893167.4,63228,11.44,72158.3,1.51,-31.17,-30.83,0,*79
1521893168.68,63229,11.44,72154.8,1.51,-31.51,-31.11,0,*70
1521893169.91,63230,11.38,72154.0,1.51,-31.79,-31.33,0,*72
1521893171.17,63231,11.44,72154.0,1.51,-31.33,-30.95,0,*70
1521893172.45,63232,11.44,72152.0,1.51,-31.61,-31.11,0,*79
1521893173.7,63233,11.44,72154.0,1.51,-31.29,-30.95,0,*79
1521893174.97,63234,11.44,72152.8,1.51,-31.61,-31.17,0,*79
1521893176.25,63235,11.44,72154.3,1.51,-31.85,-31.51,0,*70
1521893177.51,63236,11.44,72150.5,1.51,-32.39,-31.91,0,*7B
1521893178.77,63237,11.44,72152.3,1.51,-32.01,-31.51,0,*7D
1521893180.0,63238,11.44,72152.3,1.51,-31.67,-31.29,0,*7E
1521893181.23,63239,11.44,72158.8,1.51,-31.79,-31.29,0,*70
1521893182.49,63240,11.44,72158.8,1.51,-31.61,-31.17,0,*7A
1521893183.78,63241,11.44,72152.8,1.51,-31.85,-31.61,0,*70
1521893185.06,63242,11.44,72154.5,1.51,-31.91,-31.51,0,*75
1521893186.35,63243,11.44,72156.0,1.51,-31.11,-30.73,0,*7D
1521893187.61,63244,11.44,72152.5,1.51,-31.17,-30.73,0,*7C
1521893188.87,63245,11.44,72150.5,1.49,-31.85,-31.51,0,*7E
1521893190.12,63246,11.44,72152.0,1.51,-31.91,-31.67,0,*74
1521893191.34,63247,11.44,72152.3,1.51,-32.35,-31.79,0,*77
1521893192.6,63248,11.44,72152.3,1.49,-32.29,-31.95,0,*7E
1521893193.84,63249,11.44,72158.3,1.49,-32.29,-31.91,0,*7B
1521893195.1,63250,11.44,72152.3,1.47,-32.39,-31.91,0,*7C
1521893196.35,63251,11.44,72158.0,1.47,-32.23,-31.73,0,*7A
1521893197.58,63252,11.44,72154.3,1.49,-31.85,-31.33,0,*7C
1521893198.84,63253,11.44,72158.0,1.49,-31.85,-31.39,0,*77
1521893200.09,63254,11.44,72154.3,1.49,-31.73,-31.39,0,*79
1521893201.35,63255,11.44,72154.8,1.49,-31.73,-31.23,0,*73
1521893202.62,63256,11.44,72152.0,1.51,-31.17,-30.73,0,*7F
1521893203.82,63257,11.44,72156.8,1.49,-31.33,-31.01,0,*75
1521893205.05,63258,11.44,72158.3,1.51,-31.79,-31.29,0,*77
1521893206.31,63259,11.44,72154.5,1.47,-31.95,-31.67,0,*79
1521893207.56,63260,11.44,72158.3,1.47,-32.13,-31.73,0,*7B
1521893208.84,63261,11.44,72156.0,1.47,-31.91,-31.51,0,*73
1521893210.11,63262,11.44,72158.0,1.47,-31.17,-30.77,0,*7B
1521893211.37,63263,11.44,72152.8,1.45,-30.95,-30.51,0,*77
1521893212.62,63264,11.44,72156.5,1.47,-31.01,-30.51,0,*7E
1521893213.85,63265,11.44,72156.0,1.49,-31.05,-30.61,0,*76
1521893215.1,63266,11.44,72158.0,1.49,-31.73,-31.57,0,*70
1521893216.34,63267,11.44,72154.0,1.49,-31.73,-31.17,0,*75
1521893217.55,63268,11.44,72158.0,1.49,-31.17,-30.67,0,*7E
1521893218.82,63269,11.44,72156.8,1.49,-31.23,-30.77,0,*79
1521893220.05,63270,11.44,72154.0,1.51,-31.45,-31.01,0,*78
1521893221.29,63271,11.44,72156.5,1.49,-31.17,-30.77,0,*77
1521893222.52,63272,11.44,72158.8,1.49,-30.77,-30.33,0,*73
1521893223.78,63273,11.44,72156.3,1.51,-31.01,-30.61,0,*7C
1521893225.03,63274,11.44,72154.5,1.51,-32.23,-31.85,0,*73
1521893226.25,63275,11.44,72152.0,1.49,-32.23,-31.91,0,*7E
1521893227.48,63276,11.44,72152.5,1.49,-32.29,-32.13,0,*7E
1521893228.71,63277,11.44,72158.0,1.49,-32.91,-32.75,0,*7C
1521893229.94,63278,11.44,72156.5,1.49,-32.39,-31.95,0,*7C
1521893231.17,63279,11.44,72154.5,1.47,-31.67,-31.33,0,*77
1521893232.42,63280,11.44,72156.5,1.47,-31.51,-31.05,0,*71
1521893233.67,63281,11.44,72158.8,1.47,-31.39,-31.01,0,*7A
1521893234.91,63282,11.44,72156.8,1.47,-31.05,-30.67,0,*77
1521893236.17,63283,11.44,72158.3,1.47,-30.83,-30.51,0,*7C
1521893237.4,63284,11.44,72154.5,1.49,-30.89,-30.45,0,*7A
1521893238.66,63285,11.44,72152.8,1.51,-30.27,-29.89,0,*7E
1521893239.86,63286,11.44,72152.3,1.49,-30.33,-29.95,0,*7C
1521893241.11,63287,11.44,72156.5,1.51,-30.23,-29.73,0,*7D
1521893242.31,63288,11.44,72154.8,1.53,-30.23,-29.83,0,*7F
1521893243.56,63289,11.44,72152.0,1.53,-30.55,-30.17,0,*7A
1521893244.81,63290,11.44,72154.0,1.55,-30.33,-29.73,0,*7E
1521893246.09,63291,11.44,72156.3,1.55,-30.55,-30.17,0,*75
1521893247.31,63292,11.44,72152.8,1.57,-30.61,-30.27,0,*70
1521893248.52,63293,11.44,72154.8,1.57,-30.67,-30.27,0,*77
1521893249.78,63294,11.44,72152.5,1.55,-31.29,-30.77,0,*7C
1521893251.04,63295,11.44,72154.5,1.55,-30.77,-30.33,0,*77
1521893252.27,63296,11.44,72154.3,1.57,-30.73,-30.33,0,*72
1521893253.53,63297,11.44,72154.3,1.59,-30.83,-30.51,0,*76
1521893254.79,63298,11.44,72156.5,1.59,-31.33,-30.89,0,*76
1521893256.04,63299,11.44,72158.5,1.57,-32.07,-31.57,0,*7F
1521893257.26,63300,11.44,72152.5,1.57,-32.29,-32.13,0,*71
1521893258.51,63301,11.44,72156.3,1.55,-32.63,-32.35,0,*78
1521893259.74,63302,11.44,72158.5,1.53,-32.29,-32.13,0,*77
1521893260.96,63303,11.44,72158.3,1.53,-32.45,-32.13,0,*7C
1521893262.19,63304,11.44,72154.8,1.53,-32.19,-31.79,0,*7D
1521893263.44,63305,11.44,72154.5,1.53,-31.85,-31.57,0,*76
1521893264.65,63306,11.44,72152.0,1.53,-31.79,-31.45,0,*75
1521893265.91,63307,11.44,72154.5,1.53,-31.85,-31.57,0,*74
1521893267.13,63308,11.44,72152.8,1.53,-31.79,-31.57,0,*78
1521893268.36,63309,11.44,72156.5,1.51,-31.67,-31.17,0,*70
1521893269.62,63310,11.44,72154.3,1.51,-31.51,-31.17,0,*7D
1521893270.88,63311,11.44,72156.0,1.51,-31.61,-31.29,0,*72
1521893272.11,63312,11.44,72156.8,1.51,-31.79,-31.33,0,*73
1521893273.34,63313,11.44,72156.3,1.51,-31.45,-31.01,0,*7C
1521893274.58,63314,11.44,72158.0,1.51,-31.79,-31.45,0,*74
1521893275.84,63315,11.44,72156.8,1.51,-31.51,-31.01,0,*7F
1521893277.1,63316,11.44,72158.0,1.51,-31.45,-31.11,0,*78
1521893278.36,63317,11.44,72158.0,1.53,-31.11,-30.73,0,*7F
1521893279.59,63318,11.44,72156.8,1.53,-31.05,-30.73,0,*75
1521893280.82,63319,11.44,72156.5,1.51,-31.79,-31.33,0,*78
1521893282.06,63320,11.44,72154.5,1.51,-31.29,-30.83,0,*7D
1521893283.3,63321,11.44,72156.3,1.51,-31.17,-30.83,0,*71
1521893284.56,63322,11.44,72156.3,1.51,-31.33,-30.95,0,*73
1521893285.78,63323,11.44,72158.0,1.51,-31.33,-31.01,0,*7E
1521893287.05,63324,11.44,72156.0,1.53,-31.11,-30.73,0,*7F
1521893288.28,63325,11.44,72152.8,1.55,-31.05,-30.67,0,*78
1521893289.49,63326,11.44,72154.5,1.53,-31.05,-30.67,0,*7D
1521893290.76,63327,11.44,72156.5,1.53,-31.11,-30.73,0,*7C
1521893292.04,63328,11.44,72152.5,1.55,-30.95,-30.55,0,*7C
1521893293.27,63329,11.44,72152.8,1.55,-31.05,-30.67,0,*74
1521893294.54,63330,11.44,72158.0,1.55,-30.95,-30.67,0,*74
1521893295.79,63331,11.44,72158.0,1.57,-30.73,-30.51,0,*7A
1521893296.99,63332,11.44,72156.8,1.57,-31.01,-30.67,0,*78
1521893298.2,63333,11.44,72154.5,1.57,-31.01,-30.67,0,*79
1521893299.43,63334,11.44,72154.8,1.57,-31.05,-30.73,0,*7F
1521893300.62,63335,11.44,72154.5,1.57,-31.33,-31.01,0,*7F
1521893301.85,63336,11.44,72152.3,1.57,-31.39,-31.05,0,*72
1521893303.11,63337,11.44,72154.5,1.55,-31.45,-31.11,0,*7F
1521893304.32,63338,11.44,72152.5,1.57,-31.17,-30.83,0,*7F
1521893305.54,63339,11.44,72156.3,1.57,-31.39,-31.01,0,*79
1521893306.74,63340,11.44,72154.0,1.57,-31.67,-31.33,0,*7D